Skip Page Navigation
NASA JPL Caltech
NASA Logo - Jet Propulsion Laboratory + View the NASA Portal
+ Center for Near-Earth Object Studies
JPL Home Earth Solar System Stars & Galaxies Technology
JPL Solar System Dynamics
BODIES ORBITS EPHEMERIDES TOOLS PHYSICAL DATA DISCOVERY FAQ SITE MAP
JPL Small-Body Database Browser
Search: [ help ]  
160113 (2000 SK216)
Classification: Main-belt Asteroid          SPK-ID: 2160113
Ephemeris | Orbit Diagram | Orbital Elements | Mission Design | Physical Parameters | Discovery Circumstances ]

[ show orbit diagram ]
Orbital Elements at Epoch 2459000.5 (2020-May-31.0) TDB
Reference: JPL 19 (heliocentric ecliptic J2000)
 Element Value Uncertainty (1-sigma)   Units 
e .2507113780565347 5.3903e-08  
a 2.322032452217448 9.4038e-09 au
q 1.739872496230017 1.2728e-07 au
i 6.485956660257282 5.475e-06 deg
node 142.0848719731968 3.0725e-05 deg
peri 194.8185567210033 3.1426e-05 deg
M 224.5128683229322 7.8603e-06 deg
tp 2459486.903176351840
(2021-Sep-29.40317635)
3.0318e-05 TDB
period 1292.411621083128
3.54
7.851e-06
2.149e-08
d
yr
n .2785490273588656 1.6921e-09 deg/d
Q 2.904192408204879 1.1761e-08 au
  Orbit Determination Parameters
   # obs. used (total)      481  
   data-arc span      7169 days (19.63 yr)  
   first obs. used      2000-09-05  
   last obs. used      2020-04-22  
   planetary ephem.      DE431  
   SB-pert. ephem.      SB431-N16  
   condition code      0  
   norm. resid. RMS      .63196  
   source      ORB  
   producer      Otto Matic  
   solution date      2020-May-21 01:30:27  

Additional Information
 Earth MOID = .73116 au 
 Jupiter MOID = 2.48605 au 
 T_jup = 3.526 
[ hide covariance matrix ]
Orbital Elements at Epoch 2457357.5 (2015-Dec-01.0) TDB
Reference: JPL 19 (heliocentric ecliptic J2000)
 Element Value Uncertainty (1-sigma)   Units 
e .2511719882745025 5.4088e-08  
q 1.738958561319892 1.2775e-07 au
tp 2456899.789327277025
(2014-Aug-30.28932728)
2.1287e-05 TDB
node 142.1456170963316 3.0677e-05 deg
peri 194.4774888449074 3.137e-05 deg
i 6.490515034355923 5.4799e-06 deg
  Orbit Determination Parameters
   # obs. used (total)      481  
   data-arc span      7169 days (19.63 yr)  
   first obs. used      2000-09-05  
   last obs. used      2020-04-22  
   planetary ephem.      DE431  
   SB-pert. ephem.      SB431-N16  
   condition code      0  
   norm. resid. RMS      .63196  
   source      ORB  
   producer      Otto Matic  
   solution date      2020-May-21 01:30:27  

Additional Information
 Jupiter MOID = 2.48605 au 
 T_jup = 3.526 
Orbit Covariance (6×6)
  e q tp node peri i
e 2.92547478066996E-15 -6.899775313215558E-15 5.173639656160473E-14 2.123743014832018E-14 6.629658275092895E-15 -6.569474604218087E-15
q -6.899775313215558E-15 1.631910903346569E-14 -7.163040582134037E-14 -5.040948092339145E-14 3.24680140328816E-16 1.591232506354482E-14
tp 5.173639656160473E-14 -7.163040582134037E-14 4.531212719344788E-10 -9.034142811735749E-13 1.488273859903051E-10 4.41099336070052E-13
node 2.123743014832018E-14 -5.040948092339145E-14 -9.034142811735749E-13 9.410929089803289E-10 -9.344744592067745E-10 6.354248228671589E-11
peri 6.629658275092895E-15 3.24680140328816E-16 1.488273859903051E-10 -9.344744592067745E-10 9.840939969584388E-10 -6.299744057390755E-11
i -6.569474604218087E-15 1.591232506354482E-14 4.41099336070052E-13 6.354248228671589E-11 -6.299744057390755E-11 3.002897566305217E-11

Ephemeris | Orbit Diagram | Orbital Elements | Mission Design | Physical Parameters | Discovery Circumstances ]

Physical Parameter Table
Parameter Symbol Value Units Sigma Reference Notes
absolute magnitude H 16.6   n/a MPO469691  

160113 (2000 SK216)          Discovered 2000-Sep-26 by LINEAR at Socorro
Reference: 20070730/Numbers.arcLast Updated: 2007-08-06
Ephemeris | Orbit Diagram | Orbital Elements | Mission Design | Physical Parameters | Discovery Circumstances ]
ABOUT SSD CREDITS/AWARDS PRIVACY/COPYRIGHT GLOSSARY LINKS
FirstGov 2020-Aug-05 11:52 UT
(server date/time)  
NASA Home Page
Site Manager:   Ryan S. Park
Webmaster  Alan B. Chamberlin